TimeEDT,TemperatureF,Dew PointF,Humidity,Sea Level PressureIn,VisibilityMPH,Wind Direction,Wind SpeedMPH,Gust SpeedMPH,PrecipitationIn,Events,Conditions,WindDirDegrees,DateUTC
12:53 AM,46.0,39.0,76,30.15,10.0,Calm,Calm,-,N/A,,Clear,0,2011-10-03 04:53:00
1:53 AM,44.1,39.0,82,30.15,10.0,SSE,3.5,-,N/A,,Clear,160,2011-10-03 05:53:00
2:53 AM,43.0,37.9,82,30.14,10.0,Calm,Calm,-,N/A,,Clear,0,2011-10-03 06:53:00
3:53 AM,42.1,37.0,82,30.13,10.0,SSW,5.8,-,N/A,,Clear,210,2011-10-03 07:53:00
4:53 AM,41.0,36.0,82,30.14,10.0,South,3.5,-,N/A,,Clear,190,2011-10-03 08:53:00
5:53 AM,41.0,37.0,86,30.15,10.0,SSW,5.8,-,N/A,,Clear,210,2011-10-03 09:53:00
6:53 AM,42.1,36.0,79,30.16,10.0,Calm,Calm,-,N/A,,Clear,0,2011-10-03 10:53:00
7:53 AM,42.1,37.0,82,30.19,10.0,Calm,Calm,-,N/A,,Clear,0,2011-10-03 11:53:00
8:53 AM,45.0,39.0,80,30.20,10.0,SW,3.5,-,N/A,,Clear,220,2011-10-03 12:53:00
9:53 AM,51.1,37.9,61,30.22,10.0,Calm,Calm,-,N/A,,Partly Cloudy,0,2011-10-03 13:53:00
10:53 AM,55.9,39.9,55,30.21,10.0,SW,4.6,-,N/A,,Clear,220,2011-10-03 14:53:00
11:53 AM,57.9,37.0,46,30.22,10.0,Calm,Calm,-,N/A,,Partly Cloudy,0,2011-10-03 15:53:00
12:53 PM,62.1,36.0,38,30.21,10.0,SSE,3.5,-,N/A,,Clear,150,2011-10-03 16:53:00
1:53 PM,64.0,33.1,31,30.18,10.0,West,5.8,-,N/A,,Clear,280,2011-10-03 17:53:00
2:53 PM,66.0,37.0,34,30.16,10.0,WSW,9.2,-,N/A,,Clear,250,2011-10-03 18:53:00
3:53 PM,66.9,37.0,33,30.14,10.0,SW,4.6,-,N/A,,Clear,230,2011-10-03 19:53:00
4:53 PM,68.0,37.9,33,30.15,10.0,Variable,5.8,-,N/A,,Clear,0,2011-10-03 20:53:00
5:53 PM,70.0,36.0,29,30.14,10.0,Calm,Calm,-,N/A,,Clear,0,2011-10-03 21:53:00
6:53 PM,64.0,39.0,40,30.15,10.0,SSW,4.6,-,N/A,,Clear,210,2011-10-03 22:53:00
7:53 PM,63.0,37.9,40,30.17,10.0,WNW,3.5,-,N/A,,Clear,300,2011-10-03 23:53:00
8:53 PM,59.0,39.9,49,30.18,10.0,Calm,Calm,-,N/A,,Clear,0,2011-10-04 00:53:00
9:53 PM,55.9,42.1,60,30.19,10.0,Calm,Calm,-,N/A,,Clear,0,2011-10-04 01:53:00
10:53 PM,53.1,43.0,69,30.21,10.0,Calm,Calm,-,N/A,,Clear,0,2011-10-04 02:53:00
11:53 PM,51.1,43.0,74,30.22,10.0,Calm,Calm,-,N/A,,Clear,0,2011-10-04 03:53:00